This is the latest recevied weather packets stored in our database for station/object N0OQA. If no packets are shown the sender has not sent any weather packets the latest 10 day(s).
| Time | Temp. | Humidity | Pressure | Rain* | Wind** | Luminosity | Snow |
|---|---|---|---|---|---|---|---|
| 1787986553 | 19.44° C | 94% | 1017 hPa | 1.27 mm | - | - | - |
| 1787986253 | 19.44° C | 93% | 1016.9 hPa | 1.27 mm | - | - | - |
| 1787985953 | 20° C | 93% | 1016.8 hPa | 1.27 mm | - | - | - |
| 1787985653 | 20° C | 92% | 1016.9 hPa | 1.27 mm | - | - | - |
| 1787985352 | 20° C | 91% | 1017.2 hPa | 1.27 mm | - | - | - |
| 1787985052 | 20° C | 90% | 1017.3 hPa | 1.27 mm | - | - | - |
| 1787984752 | 20° C | 89% | 1017.2 hPa | 1.27 mm | - | - | - |
| 1787984451 | 20° C | 88% | 1017.3 hPa | 1.27 mm | - | - | - |
| 1787984151 | 20.56° C | 87% | 1017.4 hPa | 1.27 mm | - | - | - |
| 1787983851 | 20.56° C | 85% | 1017.5 hPa | 1.02 mm | - | - | - |
| 1787983552 | 21.11° C | 83% | 1017.5 hPa | 1.02 mm | - | - | - |
| 1787983250 | 21.11° C | 81% | 1017.6 hPa | 1.02 mm | - | - | - |
| 1787982950 | 21.67° C | 78% | 1017.7 hPa | 1.02 mm | - | - | - |
| 1787982349 | 22.22° C | 72% | 1017.8 hPa | 0 mm | - | - | - |
| 1787981447 | 22.22° C | 71% | 1017.9 hPa | 0 mm | - | - | - |
| 1787981147 | 22.22° C | 71% | 1017.8 hPa | 0 mm | - | - | - |
| 1787980847 | 22.22° C | 71% | 1017.8 hPa | 0 mm | - | - | - |
| 1787980246 | 21.67° C | 71% | 1017.8 hPa | 0 mm | - | - | - |
| 1787979645 | 21.67° C | 72% | 1017.9 hPa | 0 mm | - | - | - |
| 1787979345 | 21.67° C | 72% | 1017.9 hPa | 0 mm | - | - | - |
| 1787979045 | 22.22° C | 72% | 1017.8 hPa | 0 mm | - | - | - |
| 1787978745 | 21.67° C | 72% | 1017.8 hPa | 0 mm | - | - | - |
| 1787978444 | 21.67° C | 72% | 1017.8 hPa | 0 mm | - | - | - |
| 1787978143 | 21.67° C | 72% | 1017.7 hPa | 0 mm | - | - | - |
| 1787977843 | 21.67° C | 72% | 1017.8 hPa | 0 mm | - | - | - |
* Rain since midnight (hover to see other rain measurements)
** Current wind speed in m/s (hover to see current wind gust speed)